TOURFACTS.DK  
Stats and Facts from Tour de France.

Tour de France 2017 starts in 35 days
  Riders   Stages   Teams   Summits   Yearly  


 
Search by year

 After:  2016 - Stage 21:   14626 starters.
  5086 different riders.
  632 teams.
  2211 stages.
  454 restdays.
  436049.60 km.
  5622 abandonnees.


Top 3
Christopher Froome89:04:48
Romain Bardet89:08:53
Nairo Quintana89:09:09
Rafal Majka209 pt.
Thomas De Gendt130 pt.
Jarlinson Pantano ..121 pt.
Peter Sagan470 pt.
Marcel Kittel228 pt.
Michael Matthews199 pt.
Adam Yates89:09:30
Louis Meintjes89:11:46
Emanuel Buchmann89:52:28
Facts from Tour de France 2016
  |   Stages.  |   Stage winners.  |   Days in yellow  |   Average speed.  |   Route.  |   Teams.  |   All riders.  |   Rookies.  |   Withdrawls.  |  

  |   GC.  |   Polka  |   Green  |   White  |   Summits. (In tour)  |   Summits. (Points)  |   Miscellaneous.  |  

Stage 13 on 15 - 07 - 2016
         Owning:    Christopher Froome      Thomas De Gendt      Peter Sagan      Adam Yates  

Pick a stage:  1 2 3 4 5 6 7 8 9 10 11 12 13 14 15 16 17 18 19 20 21
  Bourg-Saint-AndéolLa Caverne du Pont-d´Arc | Dist: 37.00 km.

Average speed for all riders in stage:  39,113 km./hr.
    Place:Name:Team:Time:Km/h:
NLDTom DumoulinDEUTeam Giant Alpecin00:50:15  +  00:00:00=44,179 
KENChristopher FroomeGBRSky Procycling00:51:18  +  00:01:03=43,275 
PRTNelson OliveiraESPMovistar Team00:51:46  +  00:01:31=42,885 
4 FRAJérôme CoppelCHEIAM Cycling00:51:50  +  00:01:35=42,830 
5 AUSRohan DennisUSABMC Racing Team00:51:56  +  00:01:41=42,747 
6 NLDBauke MollemaUSATrek – Segafredo00:52:09  +  00:01:54=42,570 
7 WALGeraint ThomasGBRSky Procycling00:52:15  +  00:02:00=42,488 
8 ESPJon Izaguirre InsaustiESPMovistar Team00:52:17  +  00:02:02=42,461 
9 DEUTony MartinBELEtixx - Quick Step00:52:20  +  00:02:05=42,420 
10 ENGStephen CummingsZAFDimension Data00:52:39  +  00:02:24=42,165 
11 CZEJan BártaDEUBora-Argon 1800:52:46  +  00:02:31=42,072 
12 POLMaciej BodnarRUSTinkoff00:52:47  +  00:02:32=42,059 
13 NOREdvald Boasson HagenZAFDimension Data00:52:49  +  00:02:34=42,032 
14 NLDStef ClementCHEIAM Cycling00:52:53  +  00:02:38=41,979 
15 ESPAlejandro ValverdeESPMovistar Team00:53:03  +  00:02:48=41,847 
16 USATejay Van GarderenUSABMC Racing Team00:53:05  +  00:02:50=41,821 
17 AUSLuke DurbridgeAUSORICA BikeExchange00:53:16  +  00:03:01=41,677 
18 ENGAdam YatesAUSORICA BikeExchange00:53:16  +  00:03:01=41,677 
19 RUSIlnur ZakarinRUSTeam Katusha00:53:22  +  00:03:07=41,599 
20 COLNairo QuintanaESPMovistar Team00:53:23  +  00:03:08=41,586 
21 AUSRichie PorteUSABMC Racing Team00:53:23  +  00:03:08=41,586 
22 CZERoman KreuzigerRUSTinkoff00:53:28  +  00:03:13=41,521 
23 CHEFabian CancellaraUSATrek – Segafredo00:53:30  +  00:03:15=41,495 
24 FRAAnthony RouxFRAFDJ00:53:38  +  00:03:23=41,392 
25 ITAVincenzo NibaliKAZAstana Pro Team00:53:44  +  00:03:29=41,315 
26 ESPRubén PlazaAUSORICA BikeExchange00:53:50  +  00:03:35=41,238 
27 KAZAlexey LutsenkoKAZAstana Pro Team00:53:56  +  00:03:41=41,162 
28 FRARomain SicardFRADirect Energie00:54:03  +  00:03:48=41,073 
29 FRASylvain ChavanelFRADirect Energie00:54:07  +  00:03:52=41,022 
30 FRARomain BardetFRAAg2r La Mondiale00:54:07  +  00:03:52=41,022 
31 FRAJérémy RoyFRAFDJ00:54:21  +  00:04:06=40,846 
32 BELThomas De GendtBELLotto Soudal00:54:23  +  00:04:08=40,821 
33 ENGDaniel MartinBELEtixx - Quick Step00:54:25  +  00:04:10=40,796 
34 FRAAnthony DelaplaceFRAFortuneo - Vital Concept00:54:32  +  00:04:17=40,709 
35 ZAFLouis MeintjesITALampre-Merida00:54:37  +  00:04:22=40,647 
36 FRA Alexis GougeardFRAAg2r La Mondiale00:54:37  +  00:04:22=40,647 
37 ITAFabio AruKAZAstana Pro Team00:54:40  +  00:04:25=40,610 
38 UKRAndriy GrivkoKAZAstana Pro Team00:54:44  +  00:04:29=40,560 
39 COLJarlinson Pantano GomezCHEIAM Cycling00:54:53  +  00:04:38=40,449 
40 CHESébastien ReichenbachFRAFDJ00:54:57  +  00:04:42=40,400 
41 BELSep VanmarckeNLDTeam Lotto NL - Jumbo00:54:58  +  00:04:43=40,388 
42 ESPJoaquim RodriguezRUSTeam Katusha00:55:01  +  00:04:46=40,351 
43 AUTGeorg PreidlerDEUTeam Giant Alpecin00:55:04  +  00:04:49=40,315 
44 COLSergio Luis HenaoGBRSky Procycling00:55:07  +  00:04:52=40,278 
45 NLDWilco KeldermanNLDTeam Lotto NL - Jumbo00:55:12  +  00:04:57=40,217 
46 FRAWarren BarguilDEUTeam Giant Alpecin00:55:13  +  00:04:58=40,205 
47 CHEMartin ElmigerCHEIAM Cycling00:55:21  +  00:05:06=40,108 
48 SVNJan PolancITALampre-Merida00:55:25  +  00:05:10=40,060 
49 NORVegard BreenFRAFortuneo - Vital Concept00:55:26  +  00:05:11=40,048 
50 ITADiego RosaKAZAstana Pro Team00:55:38  +  00:05:23=39,904 
51 ITADamiano CarusoUSABMC Racing Team00:55:38  +  00:05:23=39,904 
52 CHEReto HollensteinCHEIAM Cycling00:55:41  +  00:05:26=39,868 
53 CHEMichael AlbasiniAUSORICA BikeExchange00:55:42  +  00:05:27=39,856 
54 ESPMikel Landa MeanaGBRSky Procycling00:55:45  +  00:05:30=39,821 
55 FRAPierre-Luc PérichonFRAFortuneo - Vital Concept00:55:46  +  00:05:31=39,809 
56 DEUEmanuel BuchmannDEUBora-Argon 1800:55:47  +  00:05:32=39,797 
57 LTURamunas NavardauskasUSATeam Cannondale Drapac00:55:52  +  00:05:37=39,737 
58 NLDTimo RoosenNLDTeam Lotto NL - Jumbo00:55:55  +  00:05:40=39,702 
59 NLDDylan Van BaarleUSATeam Cannondale Drapac00:55:56  +  00:05:41=39,690 
60 ZAFDaryl ImpeyAUSORICA BikeExchange00:55:58  +  00:05:43=39,666 
61 CHEMichael SchärUSABMC Racing Team00:56:04  +  00:05:49=39,596 
62 FRANicolas EdetFRACofidis – Solutions Crédits00:56:05  +  00:05:50=39,584 
63 ITAOscar GattoRUSTinkoff00:56:05  +  00:05:50=39,584 
64 ESTTanel KangertKAZAstana Pro Team00:56:06  +  00:05:51=39,572 
65 BELOliver NaesenCHEIAM Cycling00:56:07  +  00:05:52=39,560 
66 FRAThomas VoecklerFRADirect Energie00:56:10  +  00:05:55=39,525 
67 FRAFlorian VachonFRAFortuneo - Vital Concept00:56:10  +  00:05:55=39,525 
68 FRAPierre RollandUSATeam Cannondale Drapac00:56:11  +  00:05:56=39,513 
69 DNKMichael ValgrenRUSTinkoff00:56:16  +  00:06:01=39,455 
70 DEUPaul MartensNLDTeam Lotto NL - Jumbo00:56:19  +  00:06:04=39,420 
71 FRABrice FeilluFRAFortuneo - Vital Concept00:56:21  +  00:06:06=39,397 
72 ESPImanol ErvitiESPMovistar Team00:56:23  +  00:06:08=39,373 
73 ESPLuis León SánchezKAZAstana Pro Team00:56:23  +  00:06:08=39,373 
74 FRAJérôme CousinFRACofidis – Solutions Crédits00:56:28  +  00:06:13=39,315 
75 BELIljo KeisseBELEtixx - Quick Step00:56:29  +  00:06:14=39,304 
76 ESPHaimar ZubeldiaUSATrek – Segafredo00:56:30  +  00:06:15=39,292 
77 PRTRui CostaITALampre-Merida00:56:30  +  00:06:15=39,292 
78 SVKPeter SaganRUSTinkoff00:56:32  +  00:06:17=39,269 
79 ERIDaniel TeklehaimanotZAFDimension Data00:56:35  +  00:06:20=39,234 
80 FRATony GallopinBELLotto Soudal00:56:36  +  00:06:21=39,223 
81 BELGreg Van AvermaetUSABMC Racing Team00:56:37  +  00:06:22=39,211 
82 FRAArthur VichotFRAFDJ00:56:38  +  00:06:23=39,200 
83 FRAAlexis VuillermozFRAAg2r La Mondiale00:56:38  +  00:06:23=39,200 
84 USABrent BookwalterUSABMC Racing Team00:56:47  +  00:06:32=39,096 
85 ESPLuis Angel MateFRACofidis – Solutions Crédits00:56:47  +  00:06:32=39,096 
86 ITAPaolo TiralongoKAZAstana Pro Team00:56:48  +  00:06:33=39,085 
87 ESPAngel ViciosoRUSTeam Katusha00:56:49  +  00:06:34=39,073 
88 NZLGregory HendersonBELLotto Soudal00:56:49  +  00:06:34=39,073 
89 BELJan BakelantsFRAAg2r La Mondiale00:56:49  +  00:06:34=39,073 
90 FRAFabrice JeandesbozFRADirect Energie00:56:55  +  00:06:40=39,004 
91 BELJasper StuyvenUSATrek – Segafredo00:56:56  +  00:06:41=38,993 
92 LUXBen GastauerFRAAg2r La Mondiale00:56:58  +  00:06:43=38,970 
93 ITADomenico PozzovivoFRAAg2r La Mondiale00:57:02  +  00:06:47=38,925 
94 ESPMikel NieveGBRSky Procycling00:57:03  +  00:06:48=38,913 
95 NLDWout PoelsGBRSky Procycling00:57:04  +  00:06:49=38,902 
96 HRVKristijan DurasekITALampre-Merida00:57:04  +  00:06:49=38,902 
97 CHESteve MorabitoFRAFDJ00:57:06  +  00:06:51=38,879 
98 FRAWilliam BonnetFRAFDJ00:57:12  +  00:06:57=38,811 
99 FRAAdrien PetitFRADirect Energie00:57:15  +  00:07:00=38,777 
100 BELJürgen RoelandtsBELLotto Soudal00:57:20  +  00:07:05=38,721 
101 ITAFabio SabatiniBELEtixx - Quick Step00:57:22  +  00:07:07=38,698 
102 POLBartosz HuzarskiDEUBora-Argon 1800:57:24  +  00:07:09=38,676 
103 FRASamuel DumoulinFRAAg2r La Mondiale00:57:26  +  00:07:11=38,654 
104 LUXFränk SchleckUSATrek – Segafredo00:57:26  +  00:07:11=38,654 
105 ITAMatteo TosattoRUSTinkoff00:57:26  +  00:07:11=38,654 
106 FRAJulian AlaphilippeBELEtixx - Quick Step00:57:30  +  00:07:15=38,609 
107 ESPGorka Izaguirre InsaustiESPMovistar Team00:57:30  +  00:07:15=38,609 
108 CANAntoine DuchesneFRADirect Energie00:57:34  +  00:07:19=38,564 
109 NLDBert-Jan LindemanNLDTeam Lotto NL - Jumbo00:57:35  +  00:07:20=38,553 
110 DEUAndreas SchillingerDEUBora-Argon 1800:57:35  +  00:07:20=38,553 
111 USAPeter StetinaUSATrek – Segafredo00:57:36  +  00:07:21=38,542 
112 FRAMickaël CherelFRAAg2r La Mondiale00:57:37  +  00:07:22=38,531 
113 DEUMarcel SiebergBELLotto Soudal00:57:37  +  00:07:22=38,531 
114 DEURobert WagnerNLDTeam Lotto NL - Jumbo00:57:40  +  00:07:25=38,497 
115 ARGEduardo SepulvedaFRAFortuneo - Vital Concept00:57:42  +  00:07:27=38,475 
116 DEUSimon GeschkeDEUTeam Giant Alpecin00:57:42  +  00:07:27=38,475 
117 DNKJakob FuglsangKAZAstana Pro Team00:57:43  +  00:07:28=38,464 
118 NORSondre Holst EngerCHEIAM Cycling00:57:45  +  00:07:30=38,442 
119 AUSMathew HaymanAUSORICA BikeExchange00:57:48  +  00:07:33=38,408 
120 BLRVasil KiryienkaGBRSky Procycling00:57:48  +  00:07:33=38,408 
121 POLRafal MajkaRUSTinkoff00:57:48  +  00:07:33=38,408 
122 ESPMarkel IrizarUSATrek – Segafredo00:57:54  +  00:07:39=38,342 
123 NLDTom-Jelte SlagterUSATeam Cannondale Drapac00:57:56  +  00:07:41=38,320 
124 FRAArnold JeannessonFRACofidis – Solutions Crédits00:57:56  +  00:07:41=38,320 
125 ZAFReinardt Janse Van RensburgZAFDimension Data00:58:02  +  00:07:47=38,254 
126 ERINatnael Teweldemedhin BerhaneZAFDimension Data00:58:03  +  00:07:48=38,243 
127 COLWinner AnaconaESPMovistar Team00:58:03  +  00:07:48=38,243 
128 BELJens DebusschereBELLotto Soudal00:58:05  +  00:07:50=38,221 
129 ESPDaniel MorenoESPMovistar Team00:58:05  +  00:07:50=38,221 
130 NLDDylan GroenewegenNLDTeam Lotto NL - Jumbo00:58:06  +  00:07:51=38,210 
131 BELSerge PauwelsZAFDimension Data00:58:07  +  00:07:52=38,199 
132 ETHTsgabu Gebremaryan GrmayITALampre-Merida00:58:07  +  00:07:52=38,199 
133 FRAChristophe LaporteFRACofidis – Solutions Crédits00:58:09  +  00:07:54=38,177 
134 AUSMichael MatthewsAUSORICA BikeExchange00:58:11  +  00:07:56=38,155 
135 ENGIan StannardGBRSky Procycling00:58:13  +  00:07:58=38,133 
136 ESPAlberto LosadaRUSTeam Katusha00:58:13  +  00:07:58=38,133 
137 FRABryan CoquardFRADirect Energie00:58:16  +  00:08:01=38,101 
138 NLDLaurens ten DamDEUTeam Giant Alpecin00:58:22  +  00:08:07=38,035 
139 FRACyril GautierFRAAg2r La Mondiale00:58:23  +  00:08:08=38,025 
140 DEUAndré GreipelBELLotto Soudal00:58:26  +  00:08:11=37,992 
141 ESPDaniel NavarroFRACofidis – Solutions Crédits00:58:29  +  00:08:14=37,960 
142 DEUMarcus BurghardtUSABMC Racing Team00:58:31  +  00:08:16=37,938 
143 NLDAlbert TimmerDEUTeam Giant Alpecin00:58:33  +  00:08:18=37,916 
144 DEUPaul VossDEUBora-Argon 1800:58:36  +  00:08:21=37,884 
145 USALawson CraddockUSATeam Cannondale Drapac00:58:38  +  00:08:23=37,862 
146 NLDRamon SinkeldamDEUTeam Giant Alpecin00:58:41  +  00:08:26=37,830 
147 ESPJesus HerradaESPMovistar Team00:58:41  +  00:08:26=37,830 
148 USAAlex HowesUSATeam Cannondale Drapac00:58:46  +  00:08:31=37,777 
149 NORAlexander KristoffRUSTeam Katusha00:58:46  +  00:08:31=37,777 
150 DEUMarcel KittelBELEtixx - Quick Step00:58:46  +  00:08:31=37,777 
151 BELMaarten WynantsNLDTeam Lotto NL - Jumbo00:58:47  +  00:08:32=37,766 
152 DEUJohn DegenkolbDEUTeam Giant Alpecin00:58:49  +  00:08:34=37,744 
153 HRVRobert KiserlovskiRUSTinkoff00:58:51  +  00:08:36=37,723 
154 WALLuke RoweGBRSky Procycling00:58:51  +  00:08:36=37,723 
155 SVNLuka PibernikITALampre-Merida00:58:52  +  00:08:37=37,712 
156 FRAGeoffrey SoupeFRACofidis – Solutions Crédits00:58:52  +  00:08:37=37,712 
157 FRAAmaël MoinardUSABMC Racing Team00:58:53  +  00:08:38=37,702 
158 CZEPetr VakocBELEtixx - Quick Step00:58:53  +  00:08:38=37,702 
159 AUTPatrick KonradDEUBora-Argon 1800:58:54  +  00:08:39=37,691 
160 BELSam BennettDEUBora-Argon 1800:58:55  +  00:08:40=37,680 
161 BRAMaximilano RichezeBELEtixx - Quick Step00:58:57  +  00:08:42=37,659 
162 ITAJacopo GuarnieriRUSTeam Katusha00:58:58  +  00:08:43=37,648 
163 AUSAdam HansenBELLotto Soudal00:59:05  +  00:08:50=37,574 
164 DNKMatti BreschelUSATeam Cannondale Drapac00:59:07  +  00:08:52=37,553 
165 IRLChristopher Juul JensenAUSORICA BikeExchange00:59:07  +  00:08:52=37,553 
166 CHEGregory RastUSATrek – Segafredo00:59:10  +  00:08:55=37,521 
167 JPNYukiya ArashiroITALampre-Merida00:59:14  +  00:08:59=37,479 
168 BELJulien VermoteBELEtixx - Quick Step00:59:14  +  00:08:59=37,479 
169 CHEMathias FrankCHEIAM Cycling00:59:19  +  00:09:04=37,426 
170 NZLShane ArchboldDEUBora-Argon 1800:59:20  +  00:09:05=37,416 
171 FRAYohann GèneFRADirect Energie00:59:29  +  00:09:14=37,321 
172 NZLGeorge BennettNLDTeam Lotto NL - Jumbo00:59:32  +  00:09:17=37,290 
174 ITADavide CimolaiITALampre-Merida00:59:35  +  00:09:20=37,259 
175 DNKLars BakBELLotto Soudal00:59:43  +  00:09:28=37,176 
176 SVNKristjan KorenUSATeam Cannondale Drapac00:59:53  +  00:09:38=37,072 
177 ITACesare BenedettiDEUBora-Argon 1800:59:55  +  00:09:40=37,051 
178 AUTBernhard EiselZAFDimension Data00:59:59  +  00:09:44=37,010 
179 ENGDaniel McLayFRAFortuneo - Vital Concept01:00:05  +  00:09:50=36,949 
180 IMNMark CavendishZAFDimension Data01:00:22  +  00:10:07=36,775 
181 ITAMatteo BonoITALampre-Merida01:00:23  +  00:10:08=36,765 
182 FRACyril LemoineFRACofidis – Solutions Crédits01:00:33  +  00:10:18=36,664 
183 AUSLeigh HowardCHEIAM Cycling01:00:40  +  00:10:25=36,593 
184 AUTMarco HallerRUSTeam Katusha01:00:52  +  00:10:37=36,473 
185 SVNBorut BozicFRACofidis – Solutions Crédits01:00:57  +  00:10:42=36,423 
186 FRAArmindo FonsecaFRAFortuneo - Vital Concept01:01:16  +  00:11:01=36,235 
187 DNKChris Anker SørensenFRAFortuneo - Vital Concept01:01:33  +  00:11:18=36,068 

Withdrawls: 3
 
Rider
Team
Reason
68  BELEdward TheunsUSATrek – SegafredoDid not finish
121  FRAThibaut PinotFRAFDJDid not start
201  AUSSimon GerransAUSORICA BikeExchangeDid not start

Todays birthdays.

1896  Georges Cuvelier
1909  Gaspard Rinaldi
1913  Erich Bautz
1913  Alexandre Pawlisiak
1916  Edmond De Lathouwer
1918  Prosper Depredomme
1929  Eluf Dalgaard
1933  Jean Graczyk
1942  Guy Seyve
1943  Henri Rabaute
1964  Jan Siemons
1966  Andrew Bishop
1975  Andrea Brognara
1984  Mikel Nieve